Regional Weather Roundup
Issued by NWS

Home | Current Version | Previous Version | Graphics & Text | Print | Product List | Glossary Off
Versions: 1 2 3 4 5 6 7 8 9 10 11 12 13 14 15 16 17 18 19 20 21 22 23 24 25 26 27 28 29 30 31 32 33 34 35 36 37 38 39 40 41 42 43 44 45 46 47 48 49 50

000
ASUS43 KMKX 011411
RWRWI

WISCONSIN REGIONAL WEATHER ROUNDUP
NATIONAL WEATHER SERVICE MILWAUKEE/SULLIVAN WI
900 AM CDT SAT OCT 01 2016

NOTE: "FAIR" INDICATES FEW OR NO CLOUDS BELOW 12,000 FEET WITH NO
SIGNIFICANT WEATHER AND/OR OBSTRUCTIONS TO VISIBILITY.

WIZ001-002-006>008-014>016-023>028-011500-
NORTHWEST WISCONSIN

CITY           SKY/WX    TMP DP  RH WIND       PRES   REMARKS
SUPERIOR ARPT  FOG       53  53 100 NE3       30.24S VSB 1/4
ASHLAND        FOG       54  54 100 E10       30.23S VSB 1/4
HAYWARD        CLOUDY    53  51  93 NE8       30.22S
SIREN          CLOUDY    52  51  97 NE6       30.22S
CUMBERLAND     CLOUDY    52  50  93 NE7       30.20S
RICE LAKE      CLOUDY    58  51  79 N8        30.21S
CHETEK         NOT AVBL
LADYSMITH      MOSUNNY   55  52  91 N3        30.21S
EAU CLAIRE     CLOUDY    55  52  89 NE6       30.17S
MENOMONIE      PTSUNNY   53  52  95 NW6       30.18S
NEW RICHMOND   SUNNY     55  53  94 E5        30.19S
OSCEOLA        SUNNY     54  54 100 NW3       30.21F
$$

WIZ003>005-009-010-017-018-011500-
NORTH CENTRAL WISCONSIN

CITY           SKY/WX    TMP DP  RH WIND       PRES   REMARKS
MANITOWISH WTR NOT AVBL
ARBOR VITAE    PTSUNNY   57  54  90 NE3       30.20F
WOODRUFF       PTSUNNY   57  54  90 NE3       30.20F
RHINELANDER    CLOUDY    56  53  90 NE6       30.20F
EAGLE RIVER    CLOUDY    55  52  91 NE5       30.20F
LAND O LAKES   CLOUDY    55  51  88 CALM      30.23S
PHILLIPS       CLOUDY    54  52  93 NE5       30.20S
TOMAHAWK       CLOUDY    53  51  92 CALM      30.19F
MEDFORD        CLOUDY    55  55 100 NE5       30.17F
MERRILL        CLOUDY    55  53  95 NE5       30.19S
$$

WIZ029-030-035-036-043>047-011500-
CENTRAL WISCONSIN

CITY           SKY/WX    TMP DP  RH WIND       PRES   REMARKS
WAUSAU         CLOUDY    55  52  89 N7        30.15S
MOSINEE        PTSUNNY   55  55 100 N7        30.16F
MARSHFIELD     CLOUDY    58  52  80 NE9       30.15S
STEVENS POINT  CLOUDY    57  55  93 NE8       30.14F
WAUPACA        CLOUDY    60  58  94 N7        30.13S
WAUTOMA        LGT RAIN  59  57  93 NE9       30.12S
WISC RAPIDS    CLOUDY    59  56  89 NE9       30.14F
CAMP DOUGLAS   CLOUDY    57  57 100 NE6       30.12F
$$

WIZ011>013-019>022-031-037>040-048>050-011500-
NORTHEAST WISCONSIN

CITY           SKY/WX    TMP DP  RH WIND       PRES   REMARKS
ANTIGO         CLOUDY    55  54  96 NE6       30.17S
SHAWANO        CLOUDY    60  56  87 NE12      30.14S
OCONTO         NOT AVBL
STURGEON BAY   CLOUDY    62  55  77 NE8G17    30.13F
GREEN BAY      CLOUDY    61  60  97 NE8       30.12R
MANITOWOC      LGT RAIN  58  57  97 MISG      30.11S FOG
APPLETON       CLOUDY    57  57 100 NE10      30.10S
CLINTONVILLE   CLOUDY    59  54  82 NE12      30.13S
OSHKOSH        CLOUDY    59  56  89 NE9       30.10S
$$

WIZ032>034-041-042-053>061-011500-
SOUTHWEST WISCONSIN

CITY           SKY/WX    TMP DP  RH WIND       PRES   REMARKS
LA CROSSE      CLOUDY    62  55  77 N5        30.13S
SPARTA         CLOUDY    59  56  88 NE8       30.13F
VIROQUA        CLOUDY    56  56 100 NE6       30.13S
BOSCOBEL       CLOUDY    62  58  86 N7        30.10S
PRAIRIE DU CHI CLOUDY    60  56  87 CALM      30.09F
PLATTEVILLE    CLOUDY    60  60 100 NE8       30.08S
$$

WIZ056-057-062-063-064-067-068-011500-
SOUTH CENTRAL WISCONSIN

CITY           SKY/WX    TMP DP  RH WIND       PRES   REMARKS
REEDSBURG      NOT AVBL
BARABOO/DELLS  RAIN      57  56  96 NE6       30.10F
LONE ROCK      CLOUDY    60  58  92 N8        30.09F
MINERAL POINT  CLOUDY    61  61 100 N9        30.08S
MADISON        CLOUDY    59  58  96 NE9G20    30.07F
MIDDLETON      CLOUDY    60  60 100 NE9       30.08F
WATERTOWN      CLOUDY    58  58 100 N6        30.07F
MONROE         CLOUDY    59  59 100 N7        30.06S
JANESVILLE     CLOUDY    63  61  94 CALM      30.05S
$$

WIZ051-052-058>065-066-070>072-011500-
SOUTHEAST WISCONSIN

CITY           SKY/WX    TMP DP  RH WIND       PRES   REMARKS
MILWAUKEE      CLOUDY    60  58  92 NE10      30.06S
WAUKESHA       NOT AVBL
MILWAUKEE/TIMM CLOUDY    57  55  94 NE7       30.07S
RACINE         CLOUDY    61  58  90 NE10      30.06S
BURLINGTON     CLOUDY    58  57  98 CALM      30.05S
KENOSHA        CLOUDY    61  59  93 NE9       30.04S
FOND DU LAC    CLOUDY    59  57  93 NE9       30.10S FOG
SHEBOYGAN      CLOUDY    59  56  89 NE9       30.09S
WEST BEND      CLOUDY    68  68 100 N7        30.08S
JUNEAU         CLOUDY    58  56  95 N8        30.09F
$$

LSZ147-162-011500-
LAKE SUPERIOR

STATION/POSITION TIME  TEMP    WIND        PRES    WAVE
                       AIR SEA DIR/SP/G            HT/PER
                 (UTC) (F)     (DEG/KT/KT) (MB)    (FT/S)
W MID LAKE BUOY  1350   57 56   50/ 12/ 14 1023.3S   1/ 4
DEVILS ISLAND    1400   54      80/  7/  8 1023.9R
SAXON HARBOR     1340   52     160/  3/  5 1023.4S
$$

LMZ867-665-643>646-011500-
LAKE MICHIGAN

STATION/POSITION TIME  TEMP    WIND        PRES    WAVE
                       AIR SEA DIR/SP/G            HT/PER
                 (UTC) (F)     (DEG/KT/KT) (MB)    (FT/S)
CHAMBERS ISLAND  1300   61      20/ 13/ 18 1020.3S
S GREEN BAY BUOY 1300   62 62   40/ 14/ 16 1019.6S
N MID LAKE BUOY  1350   62 64   90/ 17/ 21 1019.9F   4/ 5
NORTHPORT PIER   1300   63      60/ 15/ 19 1021.0R
SISTER BAY       1308   63     120/  8/ 12   N/A
KEWAUNEE LAKESHO 1300   60      80/  9/ 12 1019.2F
SHEBOYGAN LAKESH 1400   59      40/ 11/ 13 1018.3F
PORT WASHINGTON  1300   60      50/ 10/ 13 1019.3R
ATWATER BUOY     1400   60      40/ 12/ 14 1017.8R
MILWAUKEE LAKESH 1310   58      20/ 11/ 12   N/A
S MID LAKE BUOY  1350   60 67   70/ 17/ 21 1016.5S   3/ 6
KENOSHA   LAKESH 1400   61      50/ 18/ 21 1016.9S
$$

TC  - TEMPERATURE IN CELSIUS
VSB - VISIBILITY IN STATUTE MILES
WCI - WIND CHILL INDEX
HX  - HEAT INDEX




USA.gov is the U.S. government's official web portal to all federal, state and local government web resources and services.